Location: *
(43.0409°N, 0.1694°E)
Time: 22:10:44
(UTC+00:00)

Nadezhda 1 Rocket - Pass Details

Date: 03 October 2023
Orbit: 940 x 1006 km, 83.0° (Epoch: 05 December)

Event Time Altitude Azimuth Distance (km) Brightness Sun altitude
Rises 03:59:43 0° 354° (N) 3,712 7.2 -22.3°
Reaches altitude 10° 04:02:18 10° 358° (N) 2,751 6.5 -21.8°
Maximum altitude 04:08:34 65° 80° (E) 1,063 4.4 -20.7°
Drops below altitude 10° 04:14:40 10° 162° (SSE) 2,687 6.4 -19.6°
Sets 04:17:10 0° 165° (SSE) 3,620 7.0 -19.2°
